Back to catalog

STARLINK-2622

AliveCommunicationsVLEO
NORAD 48360·PAYLOAD·🇺🇸 United States

Launched May 4, 2021 from Cape Canaveral Space Force Station

Loading…

Next Passes (next 24 hours)

TLE

FreshSource: CelesTrak SupGP

Epoch: Sep 14, 2026, 19:57 UTC

1 48360C 21038H   26257.83173611  .00023114  00000+0  74337-3 0  2571
2 48360  53.1592 197.9303 0001437 102.5167 340.3963 15.31686161    14

Track STARLINK-2622 in real time with AllMySat

Download on the App Store